| time (UTC) | temp F | wind direction | speed MPH | gust MPH | rain 1hr in | rain 24hr in | rain mn in | humidity % | barometer mb |
| 20260502224020 | 56 | 68 | 6.0 | 15.0 | 0.00 | 0.00 | 0.00 | 19 | 1020.1 |
| 20260502223019 | 57 | 45 | 6.0 | 15.0 | 0.00 | 0.00 | 0.00 | 19 | 1020.3 |
| 20260502222016 | 56 | 45 | 7.0 | 17.0 | 0.00 | 0.00 | 0.00 | 20 | 1020.2 |
| 20260502221036 | 57 | 68 | 6.0 | 17.0 | 0.00 | 0.00 | 0.00 | 21 | 1020.5 |
| 20260502220016 | 57 | 45 | 6.0 | 19.0 | 0.00 | 0.00 | 0.00 | 21 | 1020.6 |
| 20260502215016 | 56 | 45 | 8.0 | 16.0 | 0.00 | 0.00 | 0.00 | 21 | 1020.6 |
| 20260502214016 | 57 | 45 | 6.0 | 11.0 | 0.00 | 0.00 | 0.00 | 20 | 1020.9 |
| 20260502213036 | 56 | 45 | 10.0 | 16.0 | 0.00 | 0.00 | 0.00 | 22 | 1020.8 |
| 20260502212016 | 56 | 45 | 8.0 | 16.0 | 0.00 | 0.00 | 0.00 | 21 | 1021.0 |
| 20260502211016 | 57 | 45 | 7.0 | 15.0 | 0.00 | 0.00 | 0.00 | 22 | 1021.3 |
| 20260502210016 | 57 | 45 | 5.0 | 13.0 | 0.00 | 0.00 | 0.00 | 22 | 1021.5 |
| 20260502205016 | 55 | 45 | 7.0 | 13.0 | 0.00 | 0.00 | 0.00 | 23 | 1021.3 |
| 20260502204019 | 55 | 23 | 7.0 | 14.0 | 0.00 | 0.00 | 0.00 | 23 | 1021.4 |
| 20260502203039 | 57 | 68 | 6.0 | 13.0 | 0.00 | 0.00 | 0.00 | 22 | 1021.7 |
| 20260502202016 | 56 | 90 | 7.0 | 13.0 | 0.00 | 0.00 | 0.00 | 23 | 1021.7 |
| 20260502201019 | 56 | 45 | 6.0 | 13.0 | 0.00 | 0.00 | 0.00 | 23 | 1021.7 |
| 20260502200019 | 55 | 45 | 7.0 | 12.0 | 0.00 | 0.00 | 0.00 | 23 | 1021.5 |
| 20260502195016 | 56 | 338 | 5.0 | 10.0 | 0.00 | 0.00 | 0.00 | 23 | 1021.6 |
| 20260502194016 | 55 | 45 | 6.0 | 10.0 | 0.00 | 0.00 | 0.00 | 23 | 1021.7 |
| 20260502193019 | 54 | 90 | 6.0 | 13.0 | 0.00 | 0.00 | 0.00 | 23 | 1021.6 |
| 20260502192019 | 56 | 270 | 4.0 | 10.0 | 0.00 | 0.00 | 0.00 | 23 | 1022.0 |
| 20260502191019 | 55 | 45 | 3.0 | 9.0 | 0.00 | 0.00 | 0.00 | 23 | 1022.1 |
| 20260502190019 | 54 | 23 | 4.0 | 13.0 | 0.00 | 0.00 | 0.00 | 24 | 1021.9 |
| 20260502185019 | 53 | 45 | 3.0 | 9.0 | 0.00 | 0.00 | 0.00 | 23 | 1022.1 |
| 20260502184016 | 54 | 45 | 4.0 | 8.0 | 0.00 | 0.00 | 0.00 | 23 | 1022.3 |
| 20260502183019 | 55 | 68 | 5.0 | 12.0 | 0.00 | 0.00 | 0.00 | 23 | 1022.5 |
| 20260502182019 | 54 | 68 | 4.0 | 12.0 | 0.00 | 0.00 | 0.00 | 23 | 1022.6 |
| 20260502181019 | 55 | 68 | 6.0 | 13.0 | 0.00 | 0.00 | 0.00 | 22 | 1022.7 |
| 20260502164016 | 51 | 158 | 1.0 | 6.0 | 0.00 | 0.00 | 0.00 | 24 | 1023.0 |
| 20260502163016 | 50 | 158 | 3.0 | 7.0 | 0.00 | 0.00 | 0.00 | 24 | 1023.0 |
| 20260502162015 | 50 | 158 | 5.0 | 8.0 | 0.00 | 0.00 | 0.00 | 23 | 1023.0 |
| 20260502161039 | 49 | 158 | 4.0 | 9.0 | 0.00 | 0.00 | 0.00 | 24 | 1022.8 |
| 20260502152019 | 46 | 180 | 4.0 | 12.0 | 0.00 | 0.00 | 0.00 | 27 | 1023.2 |
| 20260502151015 | 46 | 135 | 3.0 | 6.0 | 0.00 | 0.00 | 0.00 | 27 | 1023.3 |
| 20260502123039 | 32 | 225 | 7.0 | 12.0 | 0.00 | 0.01 | 0.00 | 55 | 1022.7 |
| 20260502122019 | 32 | 203 | 8.0 | 13.0 | 0.00 | 0.01 | 0.00 | 56 | 1022.7 |
| 20260502121015 | 32 | 225 | 6.0 | 13.0 | 0.00 | 0.01 | 0.00 | 56 | 1022.6 |
| 20260502115019 | 31 | 203 | 6.0 | 9.0 | 0.00 | 0.01 | 0.00 | 58 | 1022.4 |
| 20260502114036 | 31 | 225 | 6.0 | 10.0 | 0.00 | 0.01 | 0.00 | 59 | 1022.5 |
| 20260502113015 | 31 | 225 | 7.0 | 11.0 | 0.00 | 0.01 | 0.00 | 58 | 1022.5 |
| 20260502112015 | 31 | 225 | 7.0 | 10.0 | 0.00 | 0.01 | 0.00 | 59 | 1022.4 |
| 20260502111015 | 30 | 225 | 8.0 | 11.0 | 0.00 | 0.01 | 0.00 | 60 | 1022.5 |
| 20260502110019 | 30 | 225 | 7.0 | 10.0 | 0.00 | 0.01 | 0.00 | 60 | 1022.4 |
| 20260502105015 | 31 | 225 | 6.0 | 9.0 | 0.00 | 0.01 | 0.00 | 60 | 1022.5 |
| 20260502104015 | 31 | 225 | 7.0 | 13.0 | 0.00 | 0.01 | 0.00 | 60 | 1022.5 |
| 20260502103019 | 30 | 203 | 7.0 | 10.0 | 0.00 | 0.01 | 0.00 | 62 | 1022.0 |
| 20260502102019 | 30 | 225 | 7.0 | 12.0 | 0.00 | 0.01 | 0.00 | 62 | 1022.1 |
| 20260502101016 | 31 | 225 | 6.0 | 9.0 | 0.00 | 0.01 | 0.00 | 60 | 1022.0 |
| 20260502091015 | 31 | 225 | 7.0 | 10.0 | 0.00 | 0.01 | 0.00 | 61 | 1022.3 |
| 20260502071035 | 31 | 225 | 6.0 | 15.0 | 0.00 | 0.01 | 0.00 | 64 | 1022.7 |
| 20260502070015 | 31 | 225 | 6.0 | 9.0 | 0.00 | 0.01 | 0.00 | 65 | 1022.8 |
| 20260502065038 | 31 | 225 | 6.0 | 8.0 | 0.00 | 0.01 | 0.00 | 66 | 1022.9 |
| 20260502064018 | 31 | 203 | 6.0 | 10.0 | 0.00 | 0.01 | 0.00 | 67 | 1022.9 |
| 20260502063018 | 31 | 225 | 6.0 | 8.0 | 0.00 | 0.01 | 0.00 | 67 | 1023.0 |
| 20260502062015 | 31 | 225 | 7.0 | 9.0 | 0.00 | 0.01 | 0.00 | 67 | 1022.6 |
| 20260502061015 | 31 | 225 | 7.0 | 11.0 | 0.00 | 0.01 | 0.00 | 67 | 1022.5 |
| 20260502060015 | 32 | 225 | 6.0 | 9.0 | 0.00 | 0.01 | 0.01 | 65 | 1022.9 |
| 20260502055020 | 32 | 225 | 6.0 | 9.0 | 0.00 | 0.01 | 0.01 | 65 | 1022.9 |
| 20260502054020 | 32 | 203 | 5.0 | 9.0 | 0.00 | 0.01 | 0.01 | 64 | 1022.8 |
| 20260502053040 | 33 | 225 | 5.0 | 8.0 | 0.00 | 0.01 | 0.01 | 62 | 1023.0 |
| 20260502052017 | 34 | 225 | 5.0 | 7.0 | 0.00 | 0.01 | 0.01 | 59 | 1023.0 |
| 20260502051017 | 34 | 225 | 4.0 | 6.0 | 0.00 | 0.01 | 0.01 | 58 | 1023.0 |
| 20260502050017 | 35 | 203 | 5.0 | 7.0 | 0.00 | 0.01 | 0.01 | 58 | 1023.2 |
| 20260502045017 | 34 | 203 | 6.0 | 8.0 | 0.00 | 0.01 | 0.01 | 61 | 1022.7 |
| 20260502044020 | 34 | 203 | 6.0 | 10.0 | 0.00 | 0.01 | 0.01 | 63 | 1022.7 |
| 20260502043016 | 34 | 203 | 5.0 | 7.0 | 0.00 | 0.01 | 0.01 | 63 | 1022.6 |
| 20260502042020 | 34 | 203 | 6.0 | 9.0 | 0.00 | 0.01 | 0.01 | 64 | 1022.6 |
| 20260502041017 | 34 | 203 | 6.0 | 8.0 | 0.00 | 0.01 | 0.01 | 64 | 1022.6 |
| 20260502040017 | 34 | 203 | 6.0 | 8.0 | 0.00 | 0.01 | 0.01 | 63 | 1022.6 |
| 20260502035037 | 35 | 203 | 5.0 | 7.0 | 0.00 | 0.01 | 0.01 | 61 | 1022.4 |
| 20260502034016 | 35 | 203 | 6.0 | 8.0 | 0.00 | 0.01 | 0.01 | 60 | 1022.3 |
| 20260502033017 | 35 | 203 | 5.0 | 7.0 | 0.00 | 0.01 | 0.01 | 59 | 1022.3 |
| 20260502032016 | 36 | 203 | 5.0 | 8.0 | 0.00 | 0.01 | 0.01 | 56 | 1021.9 |
| 20260502031056 | 37 | 203 | 4.0 | 5.0 | 0.00 | 0.01 | 0.01 | 53 | 1022.1 |
| 20260502030020 | 37 | 225 | 4.0 | 6.0 | 0.00 | 0.01 | 0.01 | 52 | 1022.0 |
| 20260502025100 | 39 | 203 | 4.0 | 6.0 | 0.00 | 0.01 | 0.01 | 45 | 1021.6 |
| 20260502024020 | 39 | 225 | 3.0 | 4.0 | 0.00 | 0.01 | 0.01 | 41 | 1021.5 |
| 20260502023016 | 40 | 270 | 5.0 | 7.0 | 0.00 | 0.01 | 0.01 | 41 | 1021.4 |
| 20260502022017 | 42 | 23 | 3.0 | 7.0 | 0.00 | 0.01 | 0.01 | 34 | 1021.3 |
| 20260502021056 | 42 | 0.0 | 2.0 | 0.00 | 0.01 | 0.01 | 32 | 1021.2 | |
| 20260502020040 | 43 | 0.0 | 2.0 | 0.00 | 0.01 | 0.01 | 32 | 1021.1 | |
| 20260502015020 | 43 | 0.0 | 2.0 | 0.00 | 0.01 | 0.01 | 32 | 1020.8 | |
| 20260502014016 | 43 | 0.0 | 1.0 | 0.00 | 0.01 | 0.01 | 31 | 1020.7 | |
| 20260502013057 | 44 | 0.0 | 2.0 | 0.00 | 0.01 | 0.01 | 31 | 1020.8 | |
| 20260502012016 | 44 | 0.0 | 2.0 | 0.00 | 0.01 | 0.01 | 31 | 1020.5 | |
| 20260502011023 | 44 | 45 | 1.0 | 3.0 | 0.00 | 0.01 | 0.01 | 32 | 1020.4 |
| 20260502010016 | 44 | 68 | 2.0 | 5.0 | 0.00 | 0.01 | 0.01 | 32 | 1020.4 |
| 20260502005016 | 44 | 0 | 5.0 | 8.0 | 0.00 | 0.01 | 0.01 | 31 | 1020.3 |
| 20260502004016 | 45 | 45 | 7.0 | 15.0 | 0.00 | 0.01 | 0.01 | 29 | 1020.3 |
| 20260502003016 | 46 | 68 | 4.0 | 11.0 | 0.00 | 0.01 | 0.01 | 29 | 1020.4 |
| 20260502002017 | 46 | 68 | 3.0 | 9.0 | 0.00 | 0.01 | 0.01 | 31 | 1020.3 |
| 20260502001040 | 46 | 113 | 2.0 | 7.0 | 0.00 | 0.01 | 0.01 | 32 | 1020.3 |
| 20260502000017 | 46 | 0.0 | 2.0 | 0.00 | 0.01 | 0.01 | 36 | 1020.3 | |
| 20260501235020 | 45 | 0.0 | 2.0 | 0.00 | 0.01 | 0.01 | 33 | 1020.1 | |
| 20260501234016 | 45 | 135 | 1.0 | 2.0 | 0.00 | 0.01 | 0.01 | 31 | 1020.2 |
| 20260501233016 | 46 | 113 | 2.0 | 7.0 | 0.00 | 0.01 | 0.01 | 33 | 1020.3 |
| 20260501232017 | 45 | 68 | 2.0 | 6.0 | 0.00 | 0.01 | 0.01 | 34 | 1020.3 |
| 20260501231020 | 45 | 113 | 3.0 | 7.0 | 0.00 | 0.01 | 0.01 | 34 | 1020.2 |
| 20260501230020 | 46 | 68 | 2.0 | 6.0 | 0.00 | 0.01 | 0.01 | 33 | 1020.3 |
| 20260501225016 | 47 | 113 | 3.0 | 8.0 | 0.00 | 0.01 | 0.01 | 32 | 1020.2 |